#�ϑ�����,���ϕ���,���ϕ���,�ő啗��,�ő啗����������,�ő�u�ԕ���,�ő�u�ԕ�����������
#(�N����),(m/s)   ,(16����),(m/s)   ,(16����)        ,(m/s)       ,(16����)            
2017/10/2 0:01,2.9,3,2.9,3,4.8,2
2017/10/2 0:02,2.8,2,2.9,3,4.5,3
2017/10/2 0:03,3,2,3,3,5.5,3
2017/10/2 0:04,3,3,3,3,3.3,2
2017/10/2 0:05,3,2,3,3,4.1,3
2017/10/2 0:06,3,2,3,3,4.5,3
2017/10/2 0:07,3.1,3,3.1,2,5.1,3
2017/10/2 0:08,3.1,3,3.1,2,5.1,4
2017/10/2 0:09,2.9,3,3,2,3.7,3
2017/10/2 0:10,2.9,3,2.9,2,5.2,3
2017/10/2 0:11,2.9,3,2.9,2,4.5,3
2017/10/2 0:12,2.9,3,2.9,2,4.1,2
2017/10/2 0:13,2.8,3,2.9,2,4.3,3
2017/10/2 0:14,2.8,2,2.8,2,3.6,3
2017/10/2 0:15,2.9,3,2.9,2,4.5,3
2017/10/2 0:16,2.9,3,2.9,2,3.6,3
2017/10/2 0:17,2.8,3,2.9,3,4.7,3
2017/10/2 0:18,2.7,2,2.8,3,5.2,1
2017/10/2 0:19,2.7,3,2.7,3,3.9,2
2017/10/2 0:20,2.6,3,2.7,3,4.2,3
2017/10/2 0:21,2.6,3,2.6,3,4.7,3
2017/10/2 0:22,2.6,3,2.6,3,5.2,3
2017/10/2 0:23,2.7,3,2.7,2,4.5,3
2017/10/2 0:24,2.7,3,2.7,2,4.8,3
2017/10/2 0:25,2.7,3,2.7,3,4.3,3
2017/10/2 0:26,2.8,3,2.8,3,4.8,3
2017/10/2 0:27,2.9,3,2.9,3,4.5,5
2017/10/2 0:28,3,3,3,3,4.4,4
2017/10/2 0:29,3.1,3,3.1,3,4.9,3
2017/10/2 0:30,3.1,3,3.1,3,3.9,3
2017/10/2 0:31,3.1,3,3.1,3,5.5,3
2017/10/2 0:32,3.2,3,3.2,3,5.1,3
2017/10/2 0:33,3.1,3,3.2,3,3.8,3
2017/10/2 0:34,3.1,3,3.1,3,4.5,4
2017/10/2 0:35,3.1,3,3.1,3,4.2,3
2017/10/2 0:36,3,3,3.1,3,4.2,3
2017/10/2 0:37,3,3,3,3,4.9,3
2017/10/2 0:38,3,3,3,3,4.4,3
2017/10/2 0:39,3,3,3,3,4.5,3
2017/10/2 0:40,2.9,3,3,3,3.2,2
2017/10/2 0:41,2.9,3,3,3,4.9,3
2017/10/2 0:42,2.9,3,2.9,3,4.5,2
2017/10/2 0:43,2.9,3,3,3,3.7,2
2017/10/2 0:44,2.9,2,2.9,3,3.6,2
2017/10/2 0:45,2.8,2,2.9,3,3.2,3
2017/10/2 0:46,2.9,2,2.9,3,5.7,4
2017/10/2 0:47,2.8,2,2.9,3,4.9,3
2017/10/2 0:48,2.8,2,2.8,3,3.6,4
2017/10/2 0:49,2.8,3,2.8,3,3.6,5
2017/10/2 0:50,2.7,3,2.8,3,3,4
2017/10/2 0:51,2.5,3,2.7,3,3.5,3
2017/10/2 0:52,2.4,3,2.5,3,3.8,2
2017/10/2 0:53,2.4,3,2.4,3,3.7,3
2017/10/2 0:54,2.5,3,2.5,2,4.2,3
2017/10/2 0:55,2.5,3,2.5,2,3.6,3
2017/10/2 0:56,2.4,3,2.5,2,4.5,2
2017/10/2 0:57,2.5,3,2.5,2,5.4,3
2017/10/2 0:58,2.5,3,2.5,2,3.3,3
2017/10/2 0:59,2.5,3,2.5,3,3.8,3
2017/10/2 1:00,2.6,3,2.6,3,5,3
2017/10/2 1:01,2.6,3,2.6,3,4.2,2
2017/10/2 1:02,2.7,3,2.7,3,3.6,4
2017/10/2 1:03,2.7,3,2.7,3,3.7,4
2017/10/2 1:04,2.7,3,2.7,3,3.6,4
2017/10/2 1:05,2.7,3,2.7,3,3.6,3
2017/10/2 1:06,2.8,3,2.8,3,4.9,2
2017/10/2 1:07,2.7,3,2.8,3,5,3
2017/10/2 1:08,2.7,3,2.7,3,3.8,2
2017/10/2 1:09,2.7,3,2.8,3,4.7,3
2017/10/2 1:10,2.7,3,2.8,3,4.5,3
2017/10/2 1:11,2.8,3,2.8,3,5.1,3
2017/10/2 1:12,2.9,3,2.9,3,4.2,3
2017/10/2 1:13,2.9,3,2.9,3,3.8,4
2017/10/2 1:14,2.8,3,2.9,3,3.9,3
2017/10/2 1:15,2.9,3,2.9,3,4.7,3
2017/10/2 1:16,2.8,3,2.9,3,3.3,3
2017/10/2 1:17,2.7,3,2.8,3,3.3,3
2017/10/2 1:18,2.7,3,2.7,3,3.5,3
2017/10/2 1:19,2.8,3,2.8,3,4.7,3
2017/10/2 1:20,2.8,3,2.8,3,3.5,3
2017/10/2 1:21,2.7,3,2.8,3,5,2
2017/10/2 1:22,2.8,3,2.8,3,4.5,3
2017/10/2 1:23,2.9,3,2.9,3,4.9,3
2017/10/2 1:24,2.9,3,2.9,3,3.9,3
2017/10/2 1:25,2.9,3,2.9,3,3.9,3
2017/10/2 1:26,3,3,3,3,3.8,3
2017/10/2 1:27,2.9,3,3,3,3,3
2017/10/2 1:28,2.9,3,3,3,4.4,3
2017/10/2 1:29,2.9,3,2.9,3,4.3,3
2017/10/2 1:30,2.9,3,2.9,3,4.9,4
2017/10/2 1:31,2.7,3,2.8,3,3,2
2017/10/2 1:32,2.6,3,2.7,3,4.2,3
2017/10/2 1:33,2.6,3,2.6,3,4.1,3
2017/10/2 1:34,2.5,3,2.6,3,3,3
2017/10/2 1:35,2.3,3,2.4,3,2.7,4
2017/10/2 1:36,2.2,2,2.3,3,2.7,3
2017/10/2 1:37,2.2,3,2.2,3,2.5,4
2017/10/2 1:38,2.1,3,2.2,3,1.9,3
2017/10/2 1:39,2,3,2.1,3,2.7,3
2017/10/2 1:40,1.9,3,2,3,3.3,4
2017/10/2 1:41,2,3,2,3,3.5,3
2017/10/2 1:42,1.9,3,2,3,3.5,3
2017/10/2 1:43,1.8,3,1.9,3,3.6,2
2017/10/2 1:44,1.8,3,1.8,3,3.1,3
2017/10/2 1:45,1.9,3,1.9,3,3.1,2
2017/10/2 1:46,2,3,2,3,3.5,2
2017/10/2 1:47,2,3,2,3,3,3
2017/10/2 1:48,2.1,3,2.1,3,3.6,3
2017/10/2 1:49,2.1,3,2.2,3,3.7,2
2017/10/2 1:50,2.2,2,2.2,3,4.9,3
2017/10/2 1:51,2.2,2,2.2,3,4.7,3
2017/10/2 1:52,2.3,2,2.3,2,4.7,3
2017/10/2 1:53,2.4,3,2.4,3,4.1,4
2017/10/2 1:54,2.5,3,2.5,3,3.6,3
2017/10/2 1:55,2.5,3,2.5,3,3.2,3
2017/10/2 1:56,2.4,3,2.5,3,2.6,4
2017/10/2 1:57,2.4,2,2.4,3,3.2,3
2017/10/2 1:58,2.4,2,2.4,3,3.8,2
2017/10/2 1:59,2.5,2,2.5,3,5.6,2
2017/10/2 2:00,2.4,2,2.5,3,2.6,1
2017/10/2 2:01,2.3,2,2.3,3,2.4,3
2017/10/2 2:02,2.1,2,2.3,3,4.1,2
2017/10/2 2:03,2.2,2,2.2,3,5.4,2
2017/10/2 2:04,2.1,2,2.2,3,3,2
2017/10/2 2:05,2.1,2,2.1,3,3.5,3
2017/10/2 2:06,2.2,2,2.2,2,2.7,2
2017/10/2 2:07,2.2,2,2.2,2,2.2,3
2017/10/2 2:08,2.1,2,2.2,2,2,2
2017/10/2 2:09,1.9,2,2.1,2,2.9,2
2017/10/2 2:10,2,2,2,2,3,2
2017/10/2 2:11,1.9,2,1.9,2,1.8,2
2017/10/2 2:12,1.9,2,1.9,2,3.2,1
2017/10/2 2:13,1.7,2,1.8,2,3.3,2
2017/10/2 2:14,1.7,2,1.7,2,2.2,2
2017/10/2 2:15,1.6,2,1.7,2,3,2
2017/10/2 2:16,1.6,2,1.7,2,3.2,2
2017/10/2 2:17,1.7,2,1.7,2,2.6,16
2017/10/2 2:18,1.7,2,1.7,2,2.1,2
2017/10/2 2:19,1.7,2,1.7,2,3.2,1
2017/10/2 2:20,1.7,2,1.7,2,3.5,2
2017/10/2 2:21,1.9,2,1.9,2,4.3,2
2017/10/2 2:22,1.9,2,1.9,2,3.6,2
2017/10/2 2:23,1.9,2,2,2,3.8,2
2017/10/2 2:24,2,2,2,2,3.3,1
2017/10/2 2:25,2.1,2,2.1,2,3.9,2
2017/10/2 2:26,2.1,2,2.1,2,3.8,2
2017/10/2 2:27,2.1,2,2.1,2,3.9,1
2017/10/2 2:28,2.2,2,2.2,2,3.3,1
2017/10/2 2:29,2.4,2,2.4,2,4.3,2
2017/10/2 2:30,2.5,2,2.5,2,4.7,1
2017/10/2 2:31,2.5,2,2.5,2,4.5,3
2017/10/2 2:32,2.4,2,2.5,2,4.1,1
2017/10/2 2:33,2.5,2,2.5,2,3.8,2
2017/10/2 2:34,2.5,2,2.5,2,3.7,2
2017/10/2 2:35,2.5,2,2.6,2,3.7,2
2017/10/2 2:36,2.5,2,2.6,2,3.9,4
2017/10/2 2:37,2.6,2,2.6,2,3.5,2
2017/10/2 2:38,2.5,2,2.6,2,2.9,2
2017/10/2 2:39,2.4,2,2.5,2,4.7,2
2017/10/2 2:40,2.4,2,2.4,2,3.7,1
2017/10/2 2:41,2.3,2,2.4,2,3.6,2
2017/10/2 2:42,2.4,2,2.4,2,4.4,1
2017/10/2 2:43,2.4,2,2.4,2,4.5,1
2017/10/2 2:44,2.5,2,2.5,2,4.9,1
2017/10/2 2:45,2.6,2,2.6,2,6,2
2017/10/2 2:46,2.7,2,2.7,2,5.1,1
2017/10/2 2:47,2.6,2,2.7,2,3.8,16
2017/10/2 2:48,2.7,2,2.7,2,4.2,3
2017/10/2 2:49,2.6,2,2.6,2,3.3,2
2017/10/2 2:50,2.5,2,2.6,2,3.7,3
2017/10/2 2:51,2.5,2,2.5,2,3,3
2017/10/2 2:52,2.4,2,2.4,2,3.5,2
2017/10/2 2:53,2.3,2,2.4,2,3.9,1
2017/10/2 2:54,2.2,2,2.3,2,3.1,2
2017/10/2 2:55,2,2,2.2,2,2.2,2
2017/10/2 2:56,1.8,2,1.9,2,2.4,3
2017/10/2 2:57,1.8,2,1.8,2,2.9,1
2017/10/2 2:58,1.7,2,1.8,2,2.4,2
2017/10/2 2:59,1.7,2,1.7,2,4.2,3
2017/10/2 3:00,1.8,2,1.8,2,3.8,1
2017/10/2 3:01,1.8,2,1.8,2,2.6,16
2017/10/2 3:02,1.7,2,1.8,2,3.1,3
2017/10/2 3:03,1.7,2,1.7,2,3.1,3
2017/10/2 3:04,1.6,2,1.7,2,3.3,2
2017/10/2 3:05,1.7,2,1.7,2,3.3,2
2017/10/2 3:06,1.7,2,1.7,2,3.5,2
2017/10/2 3:07,1.8,2,1.8,2,3.1,2
2017/10/2 3:08,1.8,2,1.8,2,4.9,2
2017/10/2 3:09,1.8,2,1.9,2,3.6,3
2017/10/2 3:10,1.8,2,1.8,2,3.1,2
2017/10/2 3:11,1.8,2,1.8,2,1.6,2
2017/10/2 3:12,1.7,2,1.8,2,1.4,2
2017/10/2 3:13,1.7,2,1.7,2,2.2,2
2017/10/2 3:14,1.7,2,1.7,2,2.5,2
2017/10/2 3:15,1.7,2,1.7,2,2.4,2
2017/10/2 3:16,1.7,2,1.7,2,3.3,3
2017/10/2 3:17,1.7,2,1.7,2,3.1,3
2017/10/2 3:18,1.7,2,1.7,2,3,3
2017/10/2 3:19,1.7,2,1.7,2,3.2,3
2017/10/2 3:20,1.7,2,1.8,2,2.4,2
2017/10/2 3:21,1.8,2,1.8,2,3.3,2
2017/10/2 3:22,1.9,2,1.9,2,3.7,1
2017/10/2 3:23,1.9,2,2,2,2.5,3
2017/10/2 3:24,1.9,2,1.9,2,3.1,2
2017/10/2 3:25,2,2,2,2,3.3,2
2017/10/2 3:26,2,2,2.1,2,4.4,3
2017/10/2 3:27,2,2,2,2,2.4,2
2017/10/2 3:28,1.9,2,2,2,3,3
2017/10/2 3:29,1.8,2,1.9,2,3.3,2
2017/10/2 3:30,1.9,2,1.9,2,3.8,2
2017/10/2 3:31,1.9,2,1.9,2,3.3,2
2017/10/2 3:32,1.9,2,1.9,2,3.2,3
2017/10/2 3:33,2,2,2,2,3.6,3
2017/10/2 3:34,1.9,2,2,2,2.1,3
2017/10/2 3:35,1.9,2,1.9,2,2.6,2
2017/10/2 3:36,1.8,2,1.9,2,3.9,2
2017/10/2 3:37,1.9,2,1.9,2,4.3,2
2017/10/2 3:38,2,2,2,2,3.6,1
2017/10/2 3:39,2,2,2,2,2.4,2
2017/10/2 3:40,2,2,2,2,3.5,3
2017/10/2 3:41,1.9,2,1.9,2,3.6,3
2017/10/2 3:42,1.9,2,1.9,2,3.9,1
2017/10/2 3:43,2,2,2,2,4.1,4
2017/10/2 3:44,2.1,2,2.1,2,4.2,2
2017/10/2 3:45,2.2,2,2.2,2,4.3,2
2017/10/2 3:46,2.2,2,2.2,2,3.3,3
2017/10/2 3:47,2.2,2,2.2,2,3.9,3
2017/10/2 3:48,2.1,2,2.2,2,2.5,3
2017/10/2 3:49,2.1,2,2.1,2,2.9,2
2017/10/2 3:50,2,2,2.1,2,2.7,2
2017/10/2 3:51,2.1,2,2.1,2,3.1,2
2017/10/2 3:52,2,2,2.1,2,3,1
2017/10/2 3:53,2,2,2,2,3.7,4
2017/10/2 3:54,2,2,2,2,4.3,3
2017/10/2 3:55,2,2,2,2,3.8,3
2017/10/2 3:56,2,2,2,2,3.3,2
2017/10/2 3:57,1.9,2,2,2,3.5,3
2017/10/2 3:58,1.9,2,1.9,2,2.7,1
2017/10/2 3:59,2,2,2,2,2.9,2
2017/10/2 4:00,2.1,2,2.1,2,3.9,2
2017/10/2 4:01,2,2,2.1,2,3.2,2
2017/10/2 4:02,2,2,2,2,4.4,1
2017/10/2 4:03,2.1,2,2.1,2,4.9,2
2017/10/2 4:04,2.1,2,2.1,2,4.4,1
2017/10/2 4:05,2.1,2,2.1,2,4.1,2
2017/10/2 4:06,2.2,2,2.2,2,4.4,2
2017/10/2 4:07,2.1,2,2.2,2,2.1,1
2017/10/2 4:08,2.2,2,2.2,2,4.5,1
2017/10/2 4:09,2.2,2,2.2,2,3.9,2
2017/10/2 4:10,2.2,2,2.2,2,3.1,3
2017/10/2 4:11,2.2,2,2.2,2,3.1,3
2017/10/2 4:12,2.2,2,2.2,2,3.2,2
2017/10/2 4:13,2.2,2,2.2,2,4.2,1
2017/10/2 4:14,2.2,2,2.2,2,4.4,2
2017/10/2 4:15,2.2,2,2.2,2,3.7,2
2017/10/2 4:16,2.2,2,2.2,2,4.4,3
2017/10/2 4:17,2.4,2,2.4,2,4.3,3
2017/10/2 4:18,2.3,2,2.4,2,4.2,3
2017/10/2 4:19,2.4,2,2.4,2,5,2
2017/10/2 4:20,2.4,2,2.4,2,4.3,1
2017/10/2 4:21,2.4,2,2.4,2,3,2
2017/10/2 4:22,2.5,2,2.5,2,3.9,2
2017/10/2 4:23,2.5,2,2.5,2,4.1,1
2017/10/2 4:24,2.4,2,2.5,2,3.5,2
2017/10/2 4:25,2.5,2,2.5,2,4.2,2
2017/10/2 4:26,2.4,2,2.4,2,3.3,1
2017/10/2 4:27,2.4,2,2.4,2,4.4,1
2017/10/2 4:28,2.3,2,2.3,2,2.2,3
2017/10/2 4:29,2.2,2,2.3,2,4.2,2
2017/10/2 4:30,2.2,2,2.2,2,4.2,2
2017/10/2 4:31,2.3,2,2.3,2,5.2,1
2017/10/2 4:32,2.2,2,2.3,2,3.6,3
2017/10/2 4:33,2.2,2,2.3,2,3.6,2
2017/10/2 4:34,2.2,2,2.2,2,4.1,1
2017/10/2 4:35,2.1,2,2.2,2,3,1
2017/10/2 4:36,2.2,2,2.2,2,3.3,1
2017/10/2 4:37,2.2,2,2.2,2,3.9,2
2017/10/2 4:38,2.4,2,2.4,2,3.9,3
2017/10/2 4:39,2.4,2,2.4,2,3.6,1
2017/10/2 4:40,2.3,2,2.4,2,3.8,2
2017/10/2 4:41,2.2,2,2.3,2,3.9,2
2017/10/2 4:42,2.1,2,2.2,2,2.9,2
2017/10/2 4:43,2.1,2,2.1,2,2.9,3
2017/10/2 4:44,2,2,2.1,2,2.5,1
2017/10/2 4:45,2,2,2,2,4.2,3
2017/10/2 4:46,1.9,2,2,2,1.9,2
2017/10/2 4:47,1.8,2,1.8,2,3.5,2
2017/10/2 4:48,1.8,2,1.8,2,3.7,2
2017/10/2 4:49,1.7,2,1.7,2,2.4,2
2017/10/2 4:50,1.6,2,1.7,2,2.5,3
2017/10/2 4:51,1.7,2,1.7,2,2.9,3
2017/10/2 4:52,1.7,2,1.7,2,2.7,3
2017/10/2 4:53,1.8,2,1.8,2,3.3,3
2017/10/2 4:54,1.8,2,1.8,2,2.2,1
2017/10/2 4:55,1.8,2,1.8,2,2.9,3
2017/10/2 4:56,1.9,2,1.9,2,3.3,3
2017/10/2 4:57,1.9,2,2,2,3.3,3
2017/10/2 4:58,1.8,2,1.9,2,2.5,1
2017/10/2 4:59,1.9,2,1.9,2,3.9,4
2017/10/2 5:00,1.9,2,1.9,2,3.6,3
2017/10/2 5:01,1.9,2,1.9,2,2.7,3
2017/10/2 5:02,1.9,2,1.9,2,2.9,2
2017/10/2 5:03,1.9,2,1.9,2,3.5,3
2017/10/2 5:04,1.8,2,1.9,2,2.7,3
2017/10/2 5:05,1.8,2,1.9,2,2.4,2
2017/10/2 5:06,1.7,2,1.8,2,3.2,4
2017/10/2 5:07,1.7,2,1.7,2,3.1,3
2017/10/2 5:08,1.7,2,1.7,2,2.4,3
2017/10/2 5:09,1.6,2,1.7,2,3.3,2
2017/10/2 5:10,1.6,2,1.7,2,3.5,3
2017/10/2 5:11,1.7,2,1.7,2,3.1,2
2017/10/2 5:12,1.8,2,1.8,2,3.6,3
2017/10/2 5:13,1.7,2,1.8,2,3.5,2
2017/10/2 5:14,1.8,2,1.8,2,3.8,2
2017/10/2 5:15,1.8,3,1.8,2,2.7,3
2017/10/2 5:16,1.9,3,1.9,3,2.9,3
2017/10/2 5:17,1.9,3,1.9,3,2,2
2017/10/2 5:18,1.9,3,1.9,3,2.7,4
2017/10/2 5:19,1.8,3,1.9,3,1.8,2
2017/10/2 5:20,1.9,3,1.9,3,3.2,2
2017/10/2 5:21,2,3,2,3,4.2,4
2017/10/2 5:22,1.8,3,2,3,2.6,3
2017/10/2 5:23,1.9,3,1.9,3,2.7,3
2017/10/2 5:24,1.8,3,1.9,3,2,3
2017/10/2 5:25,1.8,3,1.8,3,1.5,4
2017/10/2 5:26,1.7,3,1.8,3,1.4,3
2017/10/2 5:27,1.6,3,1.7,3,1.4,3
2017/10/2 5:28,1.5,3,1.6,3,1.3,2
2017/10/2 5:29,1.6,3,1.6,3,3.5,3
2017/10/2 5:30,1.6,3,1.6,3,2.6,3
2017/10/2 5:31,1.5,3,1.5,3,2.7,3
2017/10/2 5:32,1.4,3,1.4,3,2.4,3
2017/10/2 5:33,1.4,3,1.4,3,2.1,3
2017/10/2 5:34,1.3,3,1.4,3,2.2,2
2017/10/2 5:35,1.4,3,1.4,3,2.4,3
2017/10/2 5:36,1.4,3,1.4,3,2.4,3
2017/10/2 5:37,1.4,3,1.4,3,2.6,3
2017/10/2 5:38,1.6,3,1.6,3,2.6,3
2017/10/2 5:39,1.5,3,1.6,3,2.2,4
2017/10/2 5:40,1.4,3,1.5,3,1.5,3
2017/10/2 5:41,1.4,3,1.4,3,2.9,3
2017/10/2 5:42,1.4,3,1.4,3,1.9,3
2017/10/2 5:43,1.4,3,1.4,3,1.8,4
2017/10/2 5:44,1.4,3,1.4,3,2.5,3
2017/10/2 5:45,1.4,3,1.4,3,2.5,4
2017/10/2 5:46,1.4,3,1.4,3,2.7,2
2017/10/2 5:47,1.5,3,1.5,3,2.7,3
2017/10/2 5:48,1.5,3,1.5,3,2.2,3
2017/10/2 5:49,1.5,3,1.5,3,2.9,3
2017/10/2 5:50,1.5,3,1.5,3,1.9,3
2017/10/2 5:51,1.5,3,1.5,3,3,3
2017/10/2 5:52,1.6,3,1.6,3,3,3
2017/10/2 5:53,1.6,3,1.7,3,2.4,3
2017/10/2 5:54,1.5,3,1.6,3,0.8,3
2017/10/2 5:55,1.4,3,1.4,3,2,3
2017/10/2 5:56,1.5,3,1.5,3,3.1,4
2017/10/2 5:57,1.4,3,1.5,3,2.2,3
2017/10/2 5:58,1.4,3,1.4,3,1.9,2
2017/10/2 5:59,1.3,3,1.4,3,2,4
2017/10/2 6:00,1.4,3,1.4,3,2,3
2017/10/2 6:01,1.3,3,1.4,3,1.6,3
2017/10/2 6:02,1.3,3,1.3,3,2.6,4
2017/10/2 6:03,1.4,3,1.4,3,3.8,4
2017/10/2 6:04,1.6,3,1.6,3,3.3,3
2017/10/2 6:05,1.7,3,1.7,3,3.7,3
2017/10/2 6:06,1.7,3,1.7,3,3.3,3
2017/10/2 6:07,1.8,3,1.8,3,3.6,3
2017/10/2 6:08,1.9,3,1.9,3,4.2,2
2017/10/2 6:09,2.1,3,2.1,3,4.1,3
2017/10/2 6:10,2.2,3,2.2,3,3,3
2017/10/2 6:11,2.3,3,2.3,3,3.8,4
2017/10/2 6:12,2.4,3,2.4,3,3.6,5
2017/10/2 6:13,2.4,3,2.4,3,3.6,3
2017/10/2 6:14,2.3,3,2.4,3,3,3
2017/10/2 6:15,2.3,3,2.4,3,2.4,3
2017/10/2 6:16,2.2,3,2.3,3,2.2,2
2017/10/2 6:17,2,3,2.1,3,1.9,3
2017/10/2 6:18,2,3,2.1,3,4.1,2
2017/10/2 6:19,2.1,3,2.1,3,4.5,3
2017/10/2 6:20,2.1,3,2.1,3,3.2,3
2017/10/2 6:21,2,3,2.1,3,2,4
2017/10/2 6:22,1.9,3,2,3,1.9,3
2017/10/2 6:23,1.8,3,1.9,3,3.2,4
2017/10/2 6:24,1.9,3,1.9,3,3.5,3
2017/10/2 6:25,1.9,3,1.9,3,3.1,4
2017/10/2 6:26,2,3,2,3,3,3
2017/10/2 6:27,2.1,3,2.1,3,3,4
2017/10/2 6:28,2.1,3,2.1,3,2.9,3
2017/10/2 6:29,2,3,2.1,3,3.2,2
2017/10/2 6:30,1.9,3,2,3,2.7,4
2017/10/2 6:31,2.1,3,2.1,3,3.8,3
2017/10/2 6:32,2.2,3,2.2,3,3.6,3
2017/10/2 6:33,2.2,3,2.3,3,3.2,3
2017/10/2 6:34,2.2,3,2.2,3,2.6,4
2017/10/2 6:35,2.1,3,2.2,3,3.2,3
2017/10/2 6:36,2.1,3,2.1,3,2.1,5
2017/10/2 6:37,1.9,3,2,3,2,3
2017/10/2 6:38,1.8,3,1.9,3,1.5,3
2017/10/2 6:39,1.7,3,1.8,3,2.2,3
2017/10/2 6:40,1.7,3,1.7,3,2.4,3
2017/10/2 6:41,1.7,3,1.7,3,3.5,3
2017/10/2 6:42,1.6,3,1.8,3,3.1,4
2017/10/2 6:43,1.5,3,1.6,3,1.9,1
2017/10/2 6:44,1.5,3,1.5,3,2.2,5
2017/10/2 6:45,1.4,3,1.5,3,2.4,3
2017/10/2 6:46,1.4,3,1.5,3,2,4
2017/10/2 6:47,1.4,3,1.4,3,2,2
2017/10/2 6:48,1.4,3,1.4,3,1.4,3
2017/10/2 6:49,1.4,3,1.4,3,2.1,3
2017/10/2 6:50,1.3,3,1.4,3,1.4,3
2017/10/2 6:51,1.1,3,1.3,3,1.5,4
2017/10/2 6:52,1.1,3,1.1,3,2,3
2017/10/2 6:53,1,3,1.1,3,1,3
2017/10/2 6:54,1.1,3,1.1,3,2,2
2017/10/2 6:55,1,3,1.1,3,1.8,2
2017/10/2 6:56,1,3,1,3,2.5,3
2017/10/2 6:57,1.1,3,1.1,3,3,3
2017/10/2 6:58,1.2,3,1.2,3,1.9,3
2017/10/2 6:59,1.1,3,1.2,3,2,4
2017/10/2 7:00,1.2,3,1.2,3,2.6,3
2017/10/2 7:01,1.1,3,1.2,3,0.6,2
2017/10/2 7:02,1,3,1.1,3,0.5,5
2017/10/2 7:03,1,4,1,3,1,8
2017/10/2 7:04,0.9,4,1,3,1.4,6
2017/10/2 7:05,1,5,1,3,1.4,6
2017/10/2 7:06,0.9,5,0.9,3,1.1,5
2017/10/2 7:07,0.7,5,0.8,3,0.6,3
2017/10/2 7:08,0.5,5,0.7,3,0.1,4
2017/10/2 7:09,0.5,5,0.5,3,1,5
2017/10/2 7:10,0.4,5,0.5,3,1.4,3
2017/10/2 7:11,0.5,5,0.5,3,1.3,5
2017/10/2 7:12,0.6,5,0.6,3,1.4,3
2017/10/2 7:13,0.6,5,0.6,4,1.4,3
2017/10/2 7:14,0.6,5,0.6,4,2,6
2017/10/2 7:15,0.7,5,0.7,5,2.2,6
2017/10/2 7:16,0.7,5,0.7,5,2.1,4
2017/10/2 7:17,1,5,1,5,3.2,5
2017/10/2 7:18,1.1,5,1.1,5,2.6,6
2017/10/2 7:19,1.3,5,1.3,5,3.1,6
2017/10/2 7:20,1.4,5,1.4,5,2.5,4
2017/10/2 7:21,1.5,5,1.5,5,1.9,5
2017/10/2 7:22,1.4,5,1.5,5,1.6,5
2017/10/2 7:23,1.5,5,1.5,5,1.6,6
2017/10/2 7:24,1.5,5,1.5,5,2,5
2017/10/2 7:25,1.4,5,1.5,5,1.3,4
2017/10/2 7:26,1.3,5,1.4,5,0.5,4
2017/10/2 7:27,1.1,5,1.3,5,1.1,6
2017/10/2 7:28,0.9,5,1.1,5,0.8,7
2017/10/2 7:29,0.7,5,0.9,5,0.1,1
2017/10/2 7:30,0.5,5,0.7,5,0.1,11
2017/10/2 7:31,0.4,6,0.5,5,0.6,11
2017/10/2 7:32,0.4,6,0.4,5,1,12
2017/10/2 7:33,0.3,6,0.4,5,0.1,13
2017/10/2 7:34,0.3,10,0.3,5,0.9,12
2017/10/2 7:35,0.3,10,0.3,5,1.3,11
2017/10/2 7:36,0.3,11,0.3,5,0.3,12
2017/10/2 7:37,0.2,11,0.3,5,0.6,13
2017/10/2 7:38,0.2,12,0.2,5,0.6,16
2017/10/2 7:39,0.2,12,0.2,5,0.8,15
2017/10/2 7:40,0.3,13,0.3,5,1.6,3
2017/10/2 7:41,0.5,14,0.5,13,2.4,4
2017/10/2 7:42,0.6,15,0.6,15,1.8,3
2017/10/2 7:43,0.7,1,0.7,16,2.1,4
2017/10/2 7:44,0.8,3,0.8,2,2.2,5
2017/10/2 7:45,0.9,3,0.9,3,2.2,5
2017/10/2 7:46,1,3,1,3,2.7,5
2017/10/2 7:47,1.1,3,1.1,3,1.5,5
2017/10/2 7:48,1.3,4,1.3,4,2.2,3
2017/10/2 7:49,1.4,4,1.4,4,2.7,4
2017/10/2 7:50,1.5,4,1.5,4,3.2,4
2017/10/2 7:51,1.6,4,1.6,4,3.3,4
2017/10/2 7:52,1.7,4,1.7,4,3.1,3
2017/10/2 7:53,1.8,4,1.8,4,2.2,4
2017/10/2 7:54,1.8,4,1.8,4,2.6,4
2017/10/2 7:55,1.8,4,1.8,4,2.2,3
2017/10/2 7:56,2,4,2,4,3.2,4
2017/10/2 7:57,1.9,4,2,4,2,5
2017/10/2 7:58,1.8,4,1.9,4,0.8,6
2017/10/2 7:59,1.7,4,1.8,4,2,5
2017/10/2 8:00,1.7,4,1.7,4,2.7,3
2017/10/2 8:01,1.6,4,1.7,4,2.2,3
2017/10/2 8:02,1.5,4,1.6,4,2.5,2
2017/10/2 8:03,1.5,4,1.5,4,3.2,4
2017/10/2 8:04,1.5,3,1.5,4,2.6,4
2017/10/2 8:05,1.5,3,1.5,4,2.4,5
2017/10/2 8:06,1.4,3,1.5,4,2.1,3
2017/10/2 8:07,1.5,3,1.5,4,1.9,3
2017/10/2 8:08,1.6,3,1.6,4,3,3
2017/10/2 8:09,1.7,3,1.7,4,2.7,5
2017/10/2 8:10,1.5,3,1.6,4,1.6,6
2017/10/2 8:11,1.6,3,1.6,3,2.1,3
2017/10/2 8:12,1.6,3,1.6,3,2.2,3
2017/10/2 8:13,1.5,3,1.6,3,2.5,4
2017/10/2 8:14,1.4,3,1.4,3,1.6,5
2017/10/2 8:15,1.3,3,1.4,3,1.4,3
2017/10/2 8:16,1.3,3,1.3,3,2.2,3
2017/10/2 8:17,1.3,4,1.3,3,2,5
2017/10/2 8:18,1.3,4,1.3,3,2.5,3
2017/10/2 8:19,1.3,4,1.3,3,3,3
2017/10/2 8:20,1.4,4,1.4,3,2.7,3
2017/10/2 8:21,1.5,4,1.5,3,4.1,5
2017/10/2 8:22,1.5,4,1.5,3,2.2,3
2017/10/2 8:23,1.6,4,1.6,4,3.5,4
2017/10/2 8:24,1.7,4,1.7,4,3.5,5
2017/10/2 8:25,1.9,4,1.9,4,3.1,4
2017/10/2 8:26,1.8,4,1.9,4,2.1,6
2017/10/2 8:27,1.9,4,1.9,4,4.2,5
2017/10/2 8:28,2,4,2,4,2.7,3
2017/10/2 8:29,2,4,2,4,3.9,4
2017/10/2 8:30,2,5,2,4,2.5,6
2017/10/2 8:31,2.1,5,2.1,5,4.5,6
2017/10/2 8:32,2.1,5,2.1,5,2.1,5
2017/10/2 8:33,2,5,2.1,5,2.4,5
2017/10/2 8:34,1.9,4,2,5,3.7,5
2017/10/2 8:35,2,5,2,5,3.5,6
2017/10/2 8:36,2,4,2,5,3.6,3
2017/10/2 8:37,2,4,2,5,3.5,5
2017/10/2 8:38,2,4,2,5,3.5,3
2017/10/2 8:39,1.9,4,2,5,2.6,5
2017/10/2 8:40,1.8,4,1.9,5,1.8,4
2017/10/2 8:41,1.7,4,1.8,5,2.9,3
2017/10/2 8:42,1.7,4,1.8,5,2.5,3
2017/10/2 8:43,1.8,4,1.8,5,2.7,4
2017/10/2 8:44,1.8,4,1.9,5,2.5,4
2017/10/2 8:45,1.7,4,1.8,5,1.9,4
2017/10/2 8:46,1.6,4,1.7,4,1,4
2017/10/2 8:47,1.4,4,1.6,4,0.4,7
2017/10/2 8:48,1.2,4,1.4,4,0.1,13
2017/10/2 8:49,1,4,1.2,4,0.4,2
2017/10/2 8:50,0.9,4,1,4,0.5,7
2017/10/2 8:51,0.9,4,0.9,4,2.7,4
2017/10/2 8:52,0.9,4,0.9,4,2.9,5
2017/10/2 8:53,0.9,4,1,4,3,4
2017/10/2 8:54,0.9,4,0.9,4,2,5
2017/10/2 8:55,0.9,5,0.9,4,1.8,5
2017/10/2 8:56,1,4,1,4,2.7,2
2017/10/2 8:57,1.1,4,1.1,4,2.2,4
2017/10/2 8:58,1.3,4,1.3,4,3.1,6
2017/10/2 8:59,1.6,4,1.6,4,3.5,5
2017/10/2 9:00,1.7,4,1.7,4,3,5
2017/10/2 9:01,1.8,4,1.8,4,2.2,3
2017/10/2 9:02,1.8,4,1.8,4,3.3,3
2017/10/2 9:03,1.8,4,1.8,4,3,4
2017/10/2 9:04,1.8,4,1.8,4,2.2,2
2017/10/2 9:05,1.9,4,1.9,4,2.5,3
2017/10/2 9:06,1.9,4,1.9,4,2,3
2017/10/2 9:07,1.8,4,1.9,4,2.7,6
2017/10/2 9:08,1.7,4,1.8,4,1.5,6
2017/10/2 9:09,1.6,4,1.7,4,1.4,2
2017/10/2 9:10,1.5,3,1.6,4,1.5,3
2017/10/2 9:11,1.4,3,1.5,4,0.5,3
2017/10/2 9:12,1.2,3,1.3,4,1,3
2017/10/2 9:13,1,3,1.1,4,2,4
2017/10/2 9:14,1.1,3,1.1,4,2.6,5
2017/10/2 9:15,1,3,1.1,4,1.9,16
2017/10/2 9:16,1,4,1,4,2.6,6
2017/10/2 9:17,0.9,4,1,4,2,5
2017/10/2 9:18,1,3,1,4,2.2,4
2017/10/2 9:19,1,3,1,4,2.2,4
2017/10/2 9:20,1,3,1,3,1.6,1
2017/10/2 9:21,1.1,4,1.1,3,2,4
2017/10/2 9:22,1.2,4,1.2,4,2,2
2017/10/2 9:23,1.2,4,1.3,4,1.9,4
2017/10/2 9:24,1.2,4,1.2,4,2.5,7
2017/10/2 9:25,1.2,4,1.2,4,1.8,2
2017/10/2 9:26,1.2,4,1.3,4,2.1,5
2017/10/2 9:27,1.3,4,1.3,4,2.2,3
2017/10/2 9:28,1.3,4,1.3,4,2.9,4
2017/10/2 9:29,1.5,4,1.5,4,4.9,5
2017/10/2 9:30,1.7,4,1.7,4,3.9,6
2017/10/2 9:31,1.8,4,1.8,4,3.8,6
2017/10/2 9:32,2,5,2,5,3.5,5
2017/10/2 9:33,2.1,5,2.1,5,3.2,6
2017/10/2 9:34,2.3,5,2.3,5,4.5,5
2017/10/2 9:35,2.4,5,2.4,5,3.8,5
2017/10/2 9:36,2.5,5,2.5,5,3,5
2017/10/2 9:37,2.5,5,2.5,5,2.7,5
2017/10/2 9:38,2.5,5,2.5,5,2.4,5
2017/10/2 9:39,2.3,5,2.5,5,1.6,5
2017/10/2 9:40,2.2,5,2.3,5,2.1,5
2017/10/2 9:41,2.1,5,2.2,5,2.4,5
2017/10/2 9:42,2,5,2,5,3.3,4
2017/10/2 9:43,2,5,2,5,3.3,4
2017/10/2 9:44,1.8,5,2,5,2.4,5
2017/10/2 9:45,1.8,5,1.8,5,3,5
2017/10/2 9:46,1.8,5,1.8,5,3,4
2017/10/2 9:47,1.8,4,1.8,5,3.9,3
2017/10/2 9:48,1.9,4,1.9,5,2.9,5
2017/10/2 9:49,1.9,4,1.9,5,2.5,5
2017/10/2 9:50,1.9,4,1.9,5,1.9,4
2017/10/2 9:51,1.9,4,1.9,5,2.1,5
2017/10/2 9:52,1.9,4,1.9,5,2.6,3
2017/10/2 9:53,1.7,4,1.8,5,2.1,4
2017/10/2 9:54,1.7,4,1.7,4,2.6,4
2017/10/2 9:55,1.7,4,1.7,4,3.6,5
2017/10/2 9:56,1.7,4,1.8,4,3.3,5
2017/10/2 9:57,1.7,4,1.8,4,2,4
2017/10/2 9:58,1.7,4,1.7,4,2.9,4
2017/10/2 9:59,1.6,4,1.6,4,2.5,5
2017/10/2 10:00,1.7,4,1.7,4,2.7,5
2017/10/2 10:01,1.6,4,1.6,4,1.4,3
2017/10/2 10:02,1.6,4,1.6,4,2.5,4
2017/10/2 10:03,1.7,4,1.7,4,2.5,4
2017/10/2 10:04,1.6,4,1.7,4,2.2,4
2017/10/2 10:05,1.5,4,1.6,4,2.7,4
2017/10/2 10:06,1.6,4,1.6,4,4.4,5
2017/10/2 10:07,1.7,4,1.7,4,3.9,5
2017/10/2 10:08,1.6,4,1.7,4,1.9,3
2017/10/2 10:09,1.6,4,1.6,4,2.1,3
2017/10/2 10:10,1.6,4,1.6,4,1.6,5
2017/10/2 10:11,1.6,4,1.6,4,2.4,2
2017/10/2 10:12,1.6,3,1.6,4,1.8,2
2017/10/2 10:13,1.5,3,1.6,4,2.2,3
2017/10/2 10:14,1.5,3,1.5,4,2.5,2
2017/10/2 10:15,1.5,3,1.5,4,2,3
2017/10/2 10:16,1.3,3,1.5,4,2.5,3
2017/10/2 10:17,1.3,3,1.3,4,2.7,3
2017/10/2 10:18,1.4,3,1.4,4,2.7,3
2017/10/2 10:19,1.3,3,1.4,4,1.9,1
2017/10/2 10:20,1.3,3,1.3,4,1.8,2
2017/10/2 10:21,1.3,3,1.3,3,2,2
2017/10/2 10:22,1.4,3,1.4,3,2.4,3
2017/10/2 10:23,1.3,2,1.3,3,1.5,3
2017/10/2 10:24,1.2,2,1.3,3,2.2,3
2017/10/2 10:25,1.3,2,1.3,3,2.5,3
2017/10/2 10:26,1.2,2,1.3,3,2.5,3
2017/10/2 10:27,1.1,2,1.2,3,1.5,2
2017/10/2 10:28,1.1,2,1.1,3,3,3
2017/10/2 10:29,1.2,3,1.2,3,3.2,3
2017/10/2 10:30,1.3,3,1.3,3,2.7,3
2017/10/2 10:31,1.4,3,1.4,3,3,3
2017/10/2 10:32,1.4,3,1.4,3,1.6,2
2017/10/2 10:33,1.5,3,1.5,3,2,3
2017/10/2 10:34,1.6,3,1.6,3,3,3
2017/10/2 10:35,1.6,3,1.6,3,3.2,4
2017/10/2 10:36,1.7,3,1.7,3,3.6,3
2017/10/2 10:37,1.9,3,1.9,3,3.6,3
2017/10/2 10:38,1.9,3,1.9,3,2.9,3
2017/10/2 10:39,2,3,2,3,4.1,3
2017/10/2 10:40,2,3,2,3,3.6,3
2017/10/2 10:41,2,3,2,3,3.1,5
2017/10/2 10:42,2.1,3,2.1,3,2.6,3
2017/10/2 10:43,2.2,3,2.2,3,3.1,3
2017/10/2 10:44,2.2,3,2.2,3,2.5,3
2017/10/2 10:45,2.2,3,2.2,3,2.7,3
2017/10/2 10:46,2.2,3,2.2,3,3.8,3
2017/10/2 10:47,2.1,3,2.2,3,3,3
2017/10/2 10:48,2.2,3,2.2,3,3.5,3
2017/10/2 10:49,2.1,3,2.2,3,3.2,3
2017/10/2 10:50,2.1,3,2.1,3,3.3,3
2017/10/2 10:51,2.1,3,2.1,3,3.3,4
2017/10/2 10:52,2.1,3,2.1,3,2.9,3
2017/10/2 10:53,2.2,3,2.2,3,3.9,3
2017/10/2 10:54,2.2,3,2.2,3,3.6,3
2017/10/2 10:55,2.2,3,2.2,3,2.9,3
2017/10/2 10:56,2.1,3,2.2,3,2.7,3
2017/10/2 10:57,2.1,3,2.1,3,2.2,4
2017/10/2 10:58,2,3,2.1,3,2.4,4
2017/10/2 10:59,1.9,3,2,3,3,3
2017/10/2 11:00,1.8,3,1.9,3,2.7,3
2017/10/2 11:01,1.8,3,1.8,3,3.1,3
2017/10/2 11:02,1.8,3,1.8,3,2.1,2
2017/10/2 11:03,1.6,2,1.8,3,2.1,2
2017/10/2 11:04,1.4,2,1.5,3,2.9,3
2017/10/2 11:05,1.4,2,1.5,3,3,4
2017/10/2 11:06,1.4,2,1.4,3,2,2
2017/10/2 11:07,1.5,2,1.5,3,3,3
2017/10/2 11:08,1.6,2,1.6,3,4.2,3
2017/10/2 11:09,1.8,2,1.8,3,3.8,2
2017/10/2 11:10,1.8,2,1.8,3,3,2
2017/10/2 11:11,1.8,2,1.8,3,3.7,3
2017/10/2 11:12,1.8,2,1.8,3,2.7,3
2017/10/2 11:13,1.9,2,1.9,2,3,3
2017/10/2 11:14,1.8,2,1.9,2,2.5,3
2017/10/2 11:15,1.8,2,1.8,2,2.6,2
2017/10/2 11:16,1.9,2,1.9,2,3.3,2
2017/10/2 11:17,1.9,2,1.9,2,2.5,3
2017/10/2 11:18,1.7,2,1.9,2,2,3
2017/10/2 11:19,1.7,2,1.7,2,3,3
2017/10/2 11:20,1.8,2,1.8,2,3.7,3
2017/10/2 11:21,1.8,3,1.8,2,3.7,4
2017/10/2 11:22,1.7,2,1.8,2,1.6,15
2017/10/2 11:23,1.7,3,1.7,2,2.5,2
2017/10/2 11:24,1.8,3,1.8,2,3,3
2017/10/2 11:25,1.8,3,1.8,2,2.4,3
2017/10/2 11:26,1.7,3,1.8,2,2.5,3
2017/10/2 11:27,1.8,3,1.8,2,3.2,3
2017/10/2 11:28,1.8,3,1.8,2,1.8,3
2017/10/2 11:29,1.7,3,1.8,2,2.5,3
2017/10/2 11:30,1.6,3,1.7,2,3,3
2017/10/2 11:31,1.6,3,1.6,3,3.3,3
2017/10/2 11:32,1.7,3,1.7,3,2.9,4
2017/10/2 11:33,1.8,3,1.8,3,2.5,2
2017/10/2 11:34,1.7,3,1.8,3,2.4,3
2017/10/2 11:35,1.7,3,1.7,3,2,3
2017/10/2 11:36,1.8,3,1.9,3,3.5,3
2017/10/2 11:37,1.8,3,1.8,3,3.2,3
2017/10/2 11:38,2,3,2,3,3.5,3
2017/10/2 11:39,2,3,2,3,2.5,3
2017/10/2 11:40,2,3,2,3,3,3
2017/10/2 11:41,2,3,2,3,3.5,3
2017/10/2 11:42,2,3,2.1,3,3.7,4
2017/10/2 11:43,2,3,2,3,4.4,4
2017/10/2 11:44,2.2,3,2.2,3,4.2,4
2017/10/2 11:45,2.3,3,2.3,3,3.8,4
2017/10/2 11:46,2.3,3,2.3,3,3.6,3
2017/10/2 11:47,2.4,3,2.4,3,3.2,3
2017/10/2 11:48,2.2,3,2.3,3,3,3
2017/10/2 11:49,2.3,3,2.3,3,3.6,2
2017/10/2 11:50,2.3,3,2.3,3,3.1,3
2017/10/2 11:51,2.3,3,2.3,3,2.9,3